Regional Weather Roundup
Issued by NWS Kansas City/Pleasant Hill, MO

Home | Current Version | Previous Version | Graphics & Text | Print | Product List | Glossary Off
Versions: 1 2 3 4 5 6 7 8 9 10 11 12 13 14 15 16 17 18 19 20 21 22 23 24 25 26 27 28 29 30 31 32 33 34 35 36 37 38 39 40 41 42 43 44 45 46 47 48 49 50

668
ASUS43 KEAX 151710
RWREAX

WEATHER ROUNDUP FOR EASTERN KANSAS AND NORTHWEST MISSOURI
NATIONAL WEATHER SERVICE KANSAS CITY/PLEASANT HILL MO
1100 AM CST SUN JAN 15 2017

KSZ040-057-103>105-MOZ028-029-037-043-151800-
...KANSAS CITY METROPOLITAN AREA...

CITY           SKY/WX    TMP DP  RH WIND       PRES   REMARKS
K.C. INTL      FRZ DRZL  31  28  89 E8        30.33F FOG     WCI  23
K.C. DOWNTOWN  MIX PCPN  32  31  96 NE5       30.35R FOG     WCI  27
LEES SUMMIT    CLOUDY    31  30  96 E7        30.32F FOG     WCI  24
OLATHE - IXD   FRZ RAIN  32  31  96 E6        30.32F WCI  26
OLATHE - OJC   CLOUDY    31  31 100 E5        30.32S FOG     WCI  26
LAWRENCE       CLOUDY    32  31  96 NE6       30.33F FOG     WCI  26

$$

MOZ001>008-011>017-020>025-030>033-038>040-044>046-053-054-151800-
...NORTHERN AND CENTRAL MISSOURI...

CITY           SKY/WX    TMP DP  RH WIND       PRES   REMARKS
ST. JOSEPH     CLOUDY    30  30 100 E7        30.35F FOG     WCI  23
WARRENSBURG    CLOUDY    32  32 100 E5        30.33F FOG     WCI  27
WHITEMAN AFB   FRZ DRZL  32  32 100 CALM      30.32F FOG
CLINTON        NOT AVBL
SEDALIA        CLOUDY    33  31  92 E9        30.34F FOG     WCI  25
WARSAW         NOT AVBL
CHILLICOTHE      N/A     30  28  92 E6        30.37F WCI  24
KIRKSVILLE     CLOUDY    30  26  85 E9        30.36F FOG     WCI  22

$$

MOZ041-047>049-056>058-063>065-088>090-097-151800-
...EASTERN AND SOUTHERN MISSOURI...

CITY           SKY/WX    TMP DP  RH WIND       PRES   REMARKS
ST. LOUIS INTL LGT RAIN  35  31  85 E6        30.40F FOG     WCI  30
SPIRIT OF STL  LGT RAIN  33  33 100 E7        30.38F FOG     WCI  27
COLUMBIA       FRZ RAIN  32  31  96 E10       30.35F FOG     WCI  24
JEFFERSON CITY CLOUDY    33  31  92 E7        30.36F WCI  27
ROLLA          CLOUDY    32  32 100 E9        30.31F FOG     WCI  24
OSAGE BEACH    MIX PCPN  33  32  96 E6        30.34F FOG     WCI  28
SPRINGFIELD    CLOUDY    39  37  92 SE8       30.27F FOG     WCI  33
BRANSON        FOG       39  39 100 E8        30.29F VSB 1/8 WCI  34
JOPLIN         LGT RAIN  35  35 100 VRB3      30.28S FOG
WEST PLAINS    FOG       37  36  96 E6        30.33F VSB 1/2 WCI  32

$$

IAZ060-094-KSZ022-034>040-054-083-096-NEZ052-066-093-151800-
...KANSAS...SOUTHEAST NEBRASKA AND IOWA...

CITY           SKY/WX    TMP DP  RH WIND       PRES   REMARKS
TOPEKA         FRZ RAIN  32  29  88 E6        30.32F FOG     WCI  26
MANHATTAN      FRZ RAIN  31  29  92 E9        30.30F FOG     WCI  23
EMPORIA        FRZ RAIN  31  31 100 E9        30.28F FOG     WCI  23
CHANUTE        LGT RAIN  34  32  92 NE7       30.28F FOG     WCI  28
WICHITA        LGT RAIN  33  33 100 N5        30.27R FOG     WCI  29
OMAHA          CLOUDY    33  17  51 S7        30.34F WCI  27
LINCOLN        LGT RAIN  31  24  75 SE3       30.33F
FALLS CITY     FRZ RAIN  30  28  92 E6        30.33F FOG     WCI  24
LAMONI         CLOUDY    29  24  82 E5        30.34S WCI  24
DES MOINES     CLOUDY    32  19  58 S7        30.38S WCI  26

$$





USA.gov is the U.S. government's official web portal to all federal, state and local government web resources and services.